SL-14 DEB, 45282

Orbit data source: Space-Track

SL-14 DEB, 45282 is space debris in LEO originally from a launch on Thu, 15 Aug 1991 UTC launched from the Plesetsk Missile And Space Complex (PKMTR). Debris objects in space refer to the collection of defunct objects orbiting the Earth. Examples of debris include non-operational satellites, rocket bodies, and fragments generated from explosions, collisions, or faulty payload assembly.

Loading next visibility...
Identifier
45282, 1991-056U
Orbit
LEO
Country
Flag of CISCIS
Related business
Manufacturer
Unknown
Mission
Spacecraft
Bus & Motor
Unknown
Mass
Unknown
Launch date (UTC)
1991-08-15 (34 years ago)
Launch vehicle
Unknown
Launch site
Plesetsk Missile And Space Complex (PKMTR)
Object type
Payload
Rocket body
Debris
Shape & HBR
Unknown shape, 0.2 m
Radar Cross Section
Small (<0.1 m²)

Expand to show TLE details & history
Last TLE update: 8 hours ago

TLE from 8 hours ago
0 SL-14 DEB
1 45282U 91056U   25296.13785550  .00000735  00000-0  18865-2 0  9995
2 45282  82.6198 324.1038 0019581  67.6474 292.6721 13.16635817273187
Epoch: 2025-10-23T03:18Z
TLE epoch observation values (Epoch: 2025-10-23T03:18:30.715Z)
Latitude
-0.00001°
Longitude
-117.3256°
Altitude
1,194.712 km
Speed
7.259 km/s
True Right ascension
21h 36m 24s
True Declination
0° 00' 00"
Sunlit
Object was in daylight at epoch
Visualization orbit readout
Latitude
Unknown
Longitude
Unknown
Altitude
Unknown
Speed
Unknown
Apparent Right ascension
Unknown
Apparent Declination
Unknown
Sunlit
N/A
Visualization observer readout
Local Sidereal Time
06:49:58
Azimuth
Unknown
Elevation
Unknown
Doppler factor
Unknown
Orbital elements
Apogee altitude
1,209.668 km
Perigee altitude
1,180.011 km
Semi-major axis
7,572.977 km
Eccentricity
0.00196
Inclination
82.6198°
RAAN
324.1038°
Arg. of periapsis
67.6474°
True anomaly
292.46486°
Mean anomaly
292.6721°
Eccentric anomaly
292.5685°
Mean motion
3.29339 °/min
Orbital period
109.31 mins
BSTAR
0.0018865
Loading maneuver chart data...
Computing Atmospheric mass density...
Loading historical data...
Loading historical data...
Loading historical data...
Loading historical data...
Loading historical data...
Loading historical data...
Loading historical data...

Documentation

Showing up to 5 results
|